Location: Ernsee
(50.8780°N, 12.0389°E)
Time: 16:55:46
(UTC+00:00)

Cosmos 2341 Rocket - Pass Details

Date: 20 January 2020
Orbit: 967 x 1005 km, 82.9° (Epoch: 21 February)

Event Time Altitude Azimuth Distance (km) Brightness Sun altitude
Rises 05:29:46 0° 345° (NNW) 3,709 6.8 -14.5°
Reaches altitude 10° 05:32:26 10° 339° (NNW) 2,750 6.0 -14.1°
Maximum altitude 05:38:15 42° 272° (W) 1,377 4.3 -13.2°
Drops below altitude 10° 05:44:00 10° 204° (SSW) 2,711 6.3 -12.3°
Sets 05:46:37 0° 197° (SSW) 3,651 7.0 -11.9°
